Kezdőlap
METAR-TAF:

METAR-TAF

Repülőterek :

Clarion Municipal Airport

Clarion, Iowa, Amerikai Egyesült Államok

földrajzi szélesség: 42-45N, földrajzi hosszúság: 093-46W, magasság: 354 m

Jelenlegi meteorológiai megfigyelések

A jelentés 28 perccel ezelõtt készült, 10:15 UTC
Kelet-északkeleti szél 6 kt
Hőmérséklet -2°C
Páratartalom 100%
Légköri nyomás 1017 hPa
Látótávolság: 16.1 km
Derült ég

METAR: KCAV 231015Z AUTO 06006KT 10SM CLR M02/M02 A3004 RMK A01

Idő: 05:43 (10:43 UTC)


TAF: hiányzik

Meteorológiai megfigyelések és előrejelzések több, mint 4000 repülőtéren (METAR és TAF jelentéseket).

A térképen piros és sárga pontok jelzik az elérhető meteorológiai állomásokat.

Mozgassa az egeret a pont fölött, hogy megjelenjen az állomás neve.

Azután kattintson az időjárási megfigyelések és előrejelzések megtekintéséhez.

A térkép megváltoztatása: kattintson a fekete keresztel jelölt zöld gombra ráközelítéshez, a vonallal jelölt zöld gombra távolításhoz, vagy a zöld nyilakra a szomszédos térképek eléréséhez.


METAR-TAF: